• In Czech Republic
  • List of Countries
  • For 7 days
  • Water Temperature
  • Satellite Maps
  • Weather Map
  • Weather Widgets
  • user-avatar
    Login

    Hourly Weather Konyrat

    Today, 20 May, Sunday

    Time Temperature Precipitation Wind Pressure Humidity
    00:00 +9°C° 0 mm 7 mps 732 mmHg 23%
    01:00 +8°C° 0 mm 6 mps 733 mmHg 25%
    02:00 +8°C° 0 mm 6 mps 733 mmHg 27%
    03:00 +7°C° 0 mm 6 mps 733 mmHg 29%
    04:00 +6°C° 0 mm 5 mps 733 mmHg 31%
    05:00 +6°C° 0 mm 5 mps 733 mmHg 32%
    06:00 +7°C° 0 mm 5 mps 733 mmHg 29%
    07:00 +9°C° 0 mm 5 mps 733 mmHg 26%
    08:00 +10°C° 0 mm 6 mps 734 mmHg 23%
    09:00 +12°C° 0 mm 5 mps 733 mmHg 20%
    10:00 +14°C° 0 mm 5 mps 733 mmHg 18%
    11:00 +16°C° 0 mm 5 mps 733 mmHg 14%
    12:00 +17°C° 0 mm 5 mps 733 mmHg 13%
    13:00 +19°C° 0 mm 5 mps 733 mmHg 11%
    14:00 +20°C° 0 mm 4 mps 732 mmHg 10%
    15:00 +20°C° 0 mm 4 mps 732 mmHg 9%
    16:00 +20°C° 0 mm 4 mps 732 mmHg 9%
    17:00 +21°C° 0 mm 4 mps 731 mmHg 9%
    18:00 +20°C° 0 mm 4 mps 731 mmHg 11%
    19:00 +19°C° 0 mm 4 mps 731 mmHg 12%
    20:00 +18°C° 0 mm 3 mps 731 mmHg 14%
    21:00 +17°C° 0 mm 3 mps 731 mmHg 15%
    22:00 +17°C° 0 mm 3 mps 731 mmHg 16%
    23:00 +16°C° 0 mm 3 mps 731 mmHg 17%

    Tomorrow, 21 May, Monday

    Time Temperature Precipitation Wind Pressure Humidity
    00:00 +15°C° 0 mm 2 mps 731 mmHg 19%
    01:00 +14°C° 0 mm 2 mps 731 mmHg 21%
    02:00 +13°C° 0 mm 2 mps 731 mmHg 23%
    03:00 +13°C° 0 mm 2 mps 731 mmHg 24%
    04:00 +13°C° 0 mm 2 mps 731 mmHg 26%
    05:00 +13°C° 0 mm 2 mps 731 mmHg 27%
    06:00 +14°C° 0 mm 2 mps 731 mmHg 23%
    07:00 +16°C° 0 mm 3 mps 732 mmHg 20%
    08:00 +18°C° 0 mm 3 mps 732 mmHg 17%
    09:00 +19°C° 0 mm 3 mps 732 mmHg 15%
    10:00 +21°C° 0 mm 3 mps 732 mmHg 14%
    11:00 +22°C° 0 mm 4 mps 731 mmHg 13%
    12:00 +24°C° 0 mm 3 mps 731 mmHg 13%
    13:00 +25°C° 0 mm 3 mps 730 mmHg 13%
    14:00 +26°C° 0 mm 3 mps 730 mmHg 13%
    15:00 +26°C° 0 mm 3 mps 730 mmHg 13%
    16:00 +26°C° 0 mm 3 mps 729 mmHg 14%
    17:00 +27°C° 0 mm 2 mps 729 mmHg 14%
    18:00 +26°C° 0 mm 2 mps 729 mmHg 16%
    19:00 +25°C° 0 mm 1 mps 728 mmHg 19%
    20:00 +23°C° 0 mm 1 mps 728 mmHg 21%
    21:00 +23°C° 0 mm 1 mps 728 mmHg 22%
    22:00 +22°C° 0 mm 1 mps 728 mmHg 24%
    23:00 +21°C° 0 mm 1 mps 728 mmHg 25%

    Day after tomorrow, 22 May, Tuesday

    Time Temperature Precipitation Wind Pressure Humidity
    00:00 +21°C° 0 mm 1 mps 727 mmHg 26%
    01:00 +20°C° 0 mm 1 mps 727 mmHg 26%
    02:00 +19°C° 0 mm 2 mps 727 mmHg 26%
    03:00 +18°C° 0 mm 2 mps 726 mmHg 28%
    04:00 +18°C° 0 mm 2 mps 726 mmHg 30%
    05:00 +18°C° 0 mm 2 mps 726 mmHg 31%
    06:00 +20°C° 0 mm 2 mps 726 mmHg 29%
    07:00 +21°C° 0 mm 2 mps 726 mmHg 26%
    08:00 +24°C° 0 mm 2 mps 726 mmHg 24%
    09:00 +25°C° 0 mm 1 mps 726 mmHg 23%
    10:00 +26°C° 0 mm 1 mps 726 mmHg 21%
    11:00 +25°C° 0 mm 0 mps 725 mmHg 20%
    12:00 +28°C° 0 mm 1 mps 725 mmHg 19%
    13:00 +28°C° 0 mm 2 mps 725 mmHg 18%
    14:00 +29°C° 0 mm 2 mps 724 mmHg 18%
    15:00 +29°C° 0 mm 3 mps 724 mmHg 17%
    16:00 +29°C° 0 mm 4 mps 723 mmHg 17%
    17:00 +30°C° 0 mm 4 mps 723 mmHg 16%
    18:00 +28°C° 0 mm 5 mps 723 mmHg 18%
    19:00 +27°C° 0 mm 5 mps 723 mmHg 19%
    20:00 +26°C° 0 mm 5 mps 722 mmHg 21%
    21:00 +25°C° 0 mm 5 mps 722 mmHg 22%
    22:00 +23°C° 0 mm 5 mps 722 mmHg 23%
    23:00 +23°C° 0 mm 4 mps 722 mmHg 24%

    23 May, Wednesday

    Time Temperature Precipitation Wind Pressure Humidity
    00:00 +22°C° 0 mm 4 mps 722 mmHg 25%
    01:00 +21°C° 0 mm 4 mps 722 mmHg 26%
    02:00 +21°C° 0 mm 4 mps 722 mmHg 26%
    03:00 +20°C° 0 mm 4 mps 722 mmHg 34%
    04:00 +19°C° 0 mm 5 mps 722 mmHg 42%
    05:00 +17°C° 0 mm 5 mps 722 mmHg 50%
    06:00 +19°C° 0 mm 6 mps 723 mmHg 47%
    07:00 +18°C° 0 mm 7 mps 723 mmHg 43%
    08:00 +18°C° 0 mm 8 mps 724 mmHg 40%
    09:00 +20°C° 0 mm 7 mps 724 mmHg 35%
    10:00 +21°C° 0 mm 7 mps 724 mmHg 30%
    11:00 +22°C° 0 mm 7 mps 724 mmHg 25%
    12:00 +22°C° 0 mm 7 mps 725 mmHg 25%
    13:00 +23°C° 0 mm 8 mps 725 mmHg 25%
    14:00 +23°C° 0 mm 8 mps 725 mmHg 25%
    15:00 +22°C° 0 mm 8 mps 725 mmHg 22%
    16:00 +21°C° 0 mm 8 mps 726 mmHg 20%
    17:00 +21°C° 0 mm 9 mps 726 mmHg 18%
    18:00 +20°C° 0 mm 8 mps 727 mmHg 20%
    19:00 +18°C° 0 mm 7 mps 727 mmHg 23%
    20:00 +17°C° 0 mm 6 mps 728 mmHg 25%
    21:00 +16°C° 0 mm 5 mps 728 mmHg 28%
    22:00 +16°C° 0 mm 5 mps 729 mmHg 31%
    23:00 +15°C° 0 mm 4 mps 729 mmHg 34%

    24 May, Thursday

    Time Temperature Precipitation Wind Pressure Humidity
    00:00 +14°C° 0 mm 4 mps 729 mmHg 35%
    01:00 +13°C° 0 mm 4 mps 729 mmHg 37%
    02:00 +12°C° 0 mm 4 mps 730 mmHg 38%
    03:00 +12°C° 0 mm 4 mps 730 mmHg 39%
    04:00 +12°C° 0 mm 4 mps 730 mmHg 40%
    05:00 +11°C° 0 mm 3 mps 730 mmHg 41%
    06:00 +12°C° 0 mm 4 mps 730 mmHg 37%
    07:00 +13°C° 0 mm 4 mps 731 mmHg 34%
    08:00 +14°C° 0 mm 4 mps 731 mmHg 31%
    09:00 +15°C° 0 mm 4 mps 731 mmHg 28%
    10:00 +17°C° 0 mm 3 mps 731 mmHg 26%
    11:00 +17°C° 0 mm 3 mps 731 mmHg 23%
    12:00 +19°C° 0 mm 3 mps 730 mmHg 22%
    13:00 +20°C° 0 mm 3 mps 730 mmHg 20%
    14:00 +21°C° 0 mm 3 mps 730 mmHg 18%
    15:00 +21°C° 0 mm 3 mps 729 mmHg 18%
    16:00 +22°C° 0 mm 3 mps 729 mmHg 17%
    17:00 +22°C° 0 mm 3 mps 729 mmHg 17%
    18:00 +22°C° 0 mm 3 mps 729 mmHg 18%
    19:00 +21°C° 0 mm 3 mps 729 mmHg 19%
    20:00 +21°C° 0 mm 3 mps 729 mmHg 20%
    21:00 +20°C° 0 mm 2 mps 729 mmHg 22%
    22:00 +19°C° 0 mm 2 mps 729 mmHg 23%
    23:00 +18°C° 0 mm 2 mps 729 mmHg 25%

    25 May, Friday

    Time Temperature Precipitation Wind Pressure Humidity
    00:00 +17°C° 0 mm 3 mps 729 mmHg 26%
    01:00 +16°C° 0 mm 3 mps 729 mmHg 27%
    02:00 +16°C° 0 mm 3 mps 728 mmHg 28%
    03:00 +14°C° 0 mm 3 mps 728 mmHg 30%
    04:00 +14°C° 0 mm 4 mps 729 mmHg 31%
    05:00 +13°C° 0 mm 4 mps 729 mmHg 33%
    06:00 +14°C° 0 mm 4 mps 729 mmHg 31%
    07:00 +15°C° 0 mm 4 mps 729 mmHg 29%
    08:00 +16°C° 0 mm 5 mps 729 mmHg 27%
    09:00 +19°C° 0 mm 5 mps 729 mmHg 26%
    10:00 +20°C° 0 mm 5 mps 729 mmHg 24%
    11:00 +22°C° 0 mm 5 mps 729 mmHg 23%
    12:00 +23°C° 0 mm 5 mps 728 mmHg 23%
    13:00 +25°C° 0 mm 5 mps 728 mmHg 22%
    14:00 +26°C° 0 mm 4 mps 727 mmHg 21%
    15:00 +26°C° 0 mm 4 mps 727 mmHg 21%
    16:00 +26°C° 0 mm 4 mps 727 mmHg 21%
    17:00 +26°C° 0 mm 4 mps 727 mmHg 20%
    18:00 +25°C° 0 mm 4 mps 727 mmHg 21%
    19:00 +23°C° 0 mm 4 mps 726 mmHg 22%
    20:00 +22°C° 0 mm 3 mps 726 mmHg 23%
    21:00 +21°C° 0 mm 3 mps 726 mmHg 24%
    22:00 +20°C° 0 mm 3 mps 726 mmHg 25%
    23:00 +19°C° 0 mm 3 mps 726 mmHg 25%
    Show more